This demonstration page uses our WeatherBlox Daily Observations layout. Learn more.

Hourly Observations for September 29, 2020

Temp ( °F °C ) Dew Point ( °F °C ) Humidity (%) Winds ( mph kmh ) Pressure ( in mb ) Visibility ( mi km ) Precip ( " mm )
12:53 am 00:53 Clear 39 3.9 23 -5 53 53 Calm 30.19 1022 10 16.0934 0 0
1:53 am 01:53 Clear 38 3.3 23 -5 55 55 NW 7 11 30.18 1022 10 16.0934 0 0
2:53 am 02:53 Clear 38 3.3 23 -5 55 55 NW 6 9 30.16 1021 10 16.0934 0 0
3:53 am 03:53 Clear 38 3.3 23 -5 55 55 NW 8 13 30.15 1021 10 16.0934 0 0
4:53 am 04:53 Clear 38 3.3 23 -5 55 55 NW 5 7 30.15 1021 10 16.0934 0 0
5:53 am 05:53 Clear 37 2.8 24 -4.4 59 59 NW 6 9 30.16 1021 10 16.0934 0 0
6:53 am 06:53 Sunny 37 2.8 25 -3.9 62 62 NNW 6 9 30.16 1022 10 16.0934 0 0
7:53 am 07:53 Sunny 43 6.1 25 -3.9 49 49 NW 9 15 30.17 1022 10 16.0934 0 0
8:53 am 08:53 Sunny 54 12.2 25 -3.9 33 33 WNW 9 15 30.16 1021 10 16.0934 0 0
9:53 am 09:53 Sunny 60 15.6 25 -3.9 26 26 W 12 19 30.15 1021 10 16.0934 0 0
10:53 am 10:53 Sunny 70 21.1 26 -3.3 19 19 W 16 26 30.12 1020 10 16.0934 0 0
11:53 am 11:53 Sunny 76 24.4 28 -2.2 17 17 WNW 14 22 30.07 1018 10 16.0934 0 0
12:53 pm 12:53 Sunny 79 26.1 30 -1.1 17 17 WNW 16 26 30.05 1018 10 16.0934 0 0
1:53 pm 13:53 Sunny 82 27.8 31 -0.6 16 16 NW 16 26 30.01 1016 10 16.0934 0 0
2:53 pm 14:53 Sunny 83 28.3 30 -1.1 15 15 NW 17 28 29.98 1015 10 16.0934 0 0
3:53 pm 15:53 Sunny 83 28.3 29 -1.7 14 14 NNW 16 26 29.97 1015 10 16.0934 0 0
4:53 pm 16:53 Sunny 82 27.8 29 -1.7 14 14 WNW 12 19 29.96 1015 10 16.0934 0 0
5:53 pm 17:53 Sunny 79 26.1 29 -1.7 16 16 NNW 12 19 29.97 1015 10 16.0934 0 0
6:53 pm 18:53 Clear 67 19.4 30 -1.1 25 25 SW 5 7 29.99 1016 10 16.0934 0 0
7:53 pm 19:53 Clear 66 18.9 30 -1.1 26 26 Calm 29.98 1015 10 16.0934 0 0
8:53 pm 20:53 Clear 56 13.3 31 -0.6 39 39 N 6 9 30 1016 10 16.0934 0 0
9:53 pm 21:53 Clear 51 10.6 31 -0.6 46 46 WNW 5 7 30 1016 10 16.0934 0 0
10:53 pm 22:53 Clear 49 9.4 31 -0.6 50 50 NNW 7 11 29.99 1016 10 16.0934 0 0
11:53 pm 23:53 Clear 43 6.1 31 -0.6 63 63 NW 5 7 30 1016 10 16.0934 0 0

Powered by AerisWeather